Find WHDW 19-07

NORAD ID: 67528 Int'l Des: 2026-013 Owner: ZXW Country: CN Constellation: xingwang operational
LEOCIRCULAR

当前视图

正在加载3D地球...

关于 WHDW 19-07

正在加载描述...

即将过境

Passes for default location (London). Set your location on the main map for personalized predictions.

高度历史

Loading altitude history...

两行轨道根数

1 67528U 26013G 26146.23168233 -.00000074 00000-0 10880-3 0 9999
2 67528 50.0044 74.1471 0000930 31.2167 328.8760 13.29328113 17138
Epoch: May 26, 2026 • Age: 13 hours

当前状态

高度 1151.8 km
速度 7.28 km/s
星下点 35.63°N, 48.39°E
发射日期 Jan 19, 2026
运行时间 0.3 years
类型 other

技术详情

分类 Payload
质量 800.00 kg
干质量 800.00 kg
总质量 800.00 kg
长度 3.00 m
直径 1.00 m
跨度 10.00 m
形状 Box + 2 Pan
制造商 YINNT
平台类型 Xingwang Y
阶段状态 In Orbit
所有者/国家 ZXW/CN

Most Searched